Date String (YYYY-MM-DD hh:mm:ss) UTC,Instrument flags,Ambient pressure (hPa),Sample flow (lpm),Bypass flow (lpm),Sample temperature (°C),Ambient temperature (°C),ASC tube jacket temperature (°C),LED temperature (°C),Box temperature (°C),Sample RH (%),Span deviation,Mass concentration (μg/m³),Mass concentration (μg/m³),Mass concentration (μg/m³)
DateTimeUTC,F1_M11,P_M11,Q1_M11,Q2_M11,T1_M11,T2_M11,T3_M11,T4_M11,T5_M11,U1_M11,ZSPAN_M11,X2_M11,X0_M11,X1_M11
2022-03-17 20:00:00,,0828.4,5.00,0.00,22.7,22.0,00.0,31.7,24.4,15.7,0000.0,0001.93,0002.97,0001.44
2022-03-17 20:01:00,,0828.4,5.00,0.00,22.7,22.0,00.0,31.7,24.4,15.3,0000.0,0001.87,0002.88,0001.42
2022-03-17 20:02:00,,0828.4,5.00,0.00,22.7,22.0,00.0,31.7,24.4,15.8,0000.0,0001.85,0002.85,0001.41
2022-03-17 20:03:00,,0828.4,4.99,0.00,22.7,22.0,00.0,31.7,24.4,16.0,0000.0,0001.87,0002.88,0001.43
2022-03-17 20:04:00,,0828.4,5.01,0.00,22.7,22.2,00.0,31.7,24.4,15.8,0000.0,0001.92,0002.99,0001.46
2022-03-17 20:05:00,,0828.4,5.00,0.00,22.8,22.8,00.0,31.8,24.7,15.5,0000.0,0002.00,0003.14,0001.50
2022-03-17 20:06:00,,0828.4,5.01,0.00,22.9,23.4,00.0,31.8,24.9,15.4,0000.0,0002.04,0003.22,0001.53
2022-03-17 20:07:00,,0828.4,5.00,0.00,23.0,23.4,00.0,31.8,25.0,15.3,0000.0,0002.09,0003.27,0001.57
2022-03-17 20:08:00,,0828.3,4.99,0.00,23.0,23.2,00.0,31.8,25.0,15.0,0000.0,0002.15,0003.44,0001.60
2022-03-17 20:09:00,,0828.3,5.01,0.00,23.0,23.1,00.0,31.9,24.9,14.6,0000.0,0002.17,0003.42,0001.61
2022-03-17 20:10:00,,0828.4,5.00,0.00,23.0,22.9,00.0,31.9,24.9,14.8,0000.0,0002.17,0003.42,0001.61
2022-03-17 20:11:00,,0828.3,4.98,0.00,23.0,22.8,00.0,31.9,24.8,14.8,0000.0,0002.14,0003.38,0001.62
2022-03-17 20:12:00,,0828.3,5.01,0.00,23.0,22.7,00.0,31.9,24.8,14.8,0000.0,0002.19,0003.53,0001.64
2022-03-17 20:13:00,,0828.3,5.00,0.00,23.0,22.6,00.0,31.9,24.8,14.8,0000.0,0002.21,0003.58,0001.65
2022-03-17 20:14:00,,0828.2,5.00,0.00,23.0,22.6,00.0,31.9,24.8,15.0,0000.0,0002.16,0003.49,0001.62
2022-03-17 20:15:00,,0828.2,5.00,0.00,23.0,22.5,00.0,31.9,24.8,14.9,0000.0,0002.11,0003.39,0001.59
2022-03-17 20:16:00,,0828.2,4.99,0.00,23.0,22.4,00.0,31.9,24.8,14.4,0000.0,0002.03,0003.28,0001.55
2022-03-17 20:17:00,,0828.3,4.99,0.00,23.0,22.4,00.0,31.9,24.8,14.2,0000.0,0001.99,0003.27,0001.53
2022-03-17 20:18:00,,0828.2,5.00,0.00,23.0,22.3,00.0,31.9,24.8,14.3,0000.0,0001.95,0003.23,0001.50
2022-03-17 20:19:00,,0828.1,5.01,0.00,22.9,22.3,00.0,31.9,24.8,14.3,0000.0,0001.89,0003.04,0001.47
2022-03-17 20:20:00,,0828.2,4.99,0.00,22.9,22.3,00.0,31.9,24.7,13.9,0000.0,0001.87,0002.98,0001.45
2022-03-17 20:21:00,,0828.1,5.00,0.00,22.9,22.3,00.0,31.9,24.8,14.0,0000.0,0001.89,0003.04,0001.44
2022-03-17 20:22:00,,0828.2,5.00,0.00,22.9,22.3,00.0,31.9,24.7,14.3,0000.0,0001.91,0003.12,0001.43
2022-03-17 20:23:00,,0828.1,5.00,0.00,22.9,22.3,00.0,31.9,24.7,15.1,0000.0,0001.91,0003.03,0001.43
2022-03-17 20:24:00,,0828.1,5.00,0.00,22.9,22.3,00.0,31.9,24.7,15.4,0000.0,0001.91,0003.39,0001.42
2022-03-17 20:25:00,,0828.1,5.00,0.00,22.9,22.3,00.0,31.9,24.7,15.1,0000.0,0001.94,0003.57,0001.44
2022-03-17 20:26:00,,0828.1,5.00,0.00,22.9,22.3,00.0,31.9,24.7,15.2,0000.0,0001.96,0003.61,0001.44
2022-03-17 20:27:00,,0828.1,5.01,0.00,22.9,22.3,00.0,31.9,24.7,15.5,0000.0,0001.98,0003.72,0001.46
2022-03-17 20:28:00,,0828.1,5.00,0.00,22.9,22.2,00.0,31.9,24.7,16.0,0000.0,0002.01,0003.74,0001.48
2022-03-17 20:29:00,,0828.1,5.00,0.00,22.9,22.2,00.0,31.9,24.7,15.6,0000.0,0001.99,0004.61,0001.48
2022-03-17 20:30:00,,0828.1,4.99,0.00,22.9,22.2,00.0,31.9,24.6,15.0,0000.0,0001.98,0004.54,0001.49
2022-03-17 20:31:00,,0828.1,4.99,0.00,22.9,22.2,00.0,31.9,24.6,15.4,0000.0,0002.00,0004.54,0001.50
2022-03-17 20:32:00,,0828.1,5.00,0.00,22.9,22.2,00.0,31.9,24.6,15.2,0000.0,0001.98,0004.47,0001.52
2022-03-17 20:33:00,,0828.1,5.00,0.00,22.8,22.2,00.0,31.9,24.6,15.2,0000.0,0001.99,0004.44,0001.54
2022-03-17 20:34:00,,0828.1,5.00,0.00,22.8,22.2,00.0,31.8,24.6,15.0,0000.0,0001.96,0004.37,0001.54
2022-03-17 20:35:00,,0828.0,5.01,0.00,22.8,22.1,00.0,31.8,24.5,15.2,0000.0,0001.97,0003.97,0001.55
2022-03-17 20:36:00,,0828.0,4.99,0.00,22.8,22.1,00.0,31.8,24.5,15.2,0000.0,0001.96,0003.86,0001.55
2022-03-17 20:37:00,,0828.1,5.01,0.00,22.8,22.0,00.0,31.8,24.5,15.3,0000.0,0001.97,0003.92,0001.54
2022-03-17 20:38:00,,0828.2,4.99,0.00,22.7,22.0,00.0,31.8,24.4,15.5,0000.0,0002.00,0003.94,0001.53
2022-03-17 20:39:00,,0828.0,5.00,0.00,22.7,22.0,00.0,31.8,24.5,15.3,0000.0,0002.05,0004.16,0001.53
2022-03-17 20:40:00,,0828.1,5.00,0.00,22.7,22.0,00.0,31.8,24.5,15.3,0000.0,0002.10,0003.35,0001.55
2022-03-17 20:41:00,,0828.1,5.00,0.00,22.7,22.0,00.0,31.8,24.5,15.7,0000.0,0002.12,0003.37,0001.57
2022-03-17 20:42:00,,0828.0,5.01,0.00,22.7,22.0,00.0,31.8,24.5,16.3,0000.0,0002.14,0003.45,0001.58
2022-03-17 20:43:00,,0828.3,4.99,0.00,22.7,22.0,00.0,31.8,24.5,16.3,0000.0,0002.19,0003.55,0001.61
2022-03-17 20:44:00,,0828.4,5.00,0.00,22.7,22.0,00.0,31.7,24.4,15.9,0000.0,0002.20,0003.58,0001.61
2022-03-17 20:45:00,,0828.0,5.01,0.00,22.7,22.0,00.0,31.7,24.5,15.7,0000.0,0002.23,0003.70,0001.61
2022-03-17 20:46:00,,0828.1,5.00,0.00,22.7,22.0,00.0,31.7,24.5,15.3,0000.0,0002.26,0003.83,0001.60
2022-03-17 20:47:00,,0828.1,4.99,0.00,22.7,22.0,00.0,31.7,24.5,15.2,0000.0,0002.23,0003.78,0001.58
2022-03-17 20:48:00,,0828.1,4.99,0.00,22.7,22.0,00.0,31.7,24.5,15.5,0000.0,0002.20,0003.71,0001.56
2022-03-17 20:49:00,,0828.3,4.99,0.00,22.7,22.0,00.0,31.7,24.5,15.8,0000.0,0002.18,0003.65,0001.56
2022-03-17 20:50:00,,0828.0,5.00,0.00,22.7,22.1,00.0,31.7,24.5,16.1,0000.0,0002.12,0003.42,0001.56
2022-03-17 20:51:00,,0828.1,5.01,0.00,22.7,22.1,00.0,31.7,24.5,15.8,0000.0,0002.12,0003.37,0001.54
2022-03-17 20:52:00,,0828.0,4.99,0.00,22.7,22.1,00.0,31.7,24.5,14.8,0000.0,0002.12,0003.46,0001.52
2022-03-17 20:53:00,,0828.0,5.01,0.00,22.7,22.1,00.0,31.7,24.5,14.5,0000.0,0002.14,0003.63,0001.49
2022-03-17 20:54:00,,0828.0,5.01,0.00,22.7,22.1,00.0,31.7,24.5,14.5,0000.0,0002.08,0004.03,0001.45
2022-03-17 20:55:00,,0828.0,5.00,0.00,22.7,22.1,00.0,31.7,24.5,14.6,0000.0,0002.05,0003.97,0001.42
2022-03-17 20:56:00,,0828.0,4.99,0.00,22.7,22.1,00.0,31.7,24.6,15.1,0000.0,0002.05,0003.91,0001.41
2022-03-17 20:57:00,,0827.9,4.99,0.00,22.7,22.1,00.0,31.7,24.6,15.5,0000.0,0002.03,0003.81,0001.42
2022-03-17 20:58:00,,0827.9,5.00,0.00,22.7,22.1,00.0,31.7,24.6,15.2,0000.0,0002.06,0003.89,0001.44
2022-03-17 20:59:00,,0827.9,5.01,0.00,22.7,22.1,00.0,31.7,24.6,15.6,0000.0,0002.05,0003.83,0001.44
